Location: Hilton Head Island
(32.2163°N, 80.7526°W)
Time: 19:11:26
(UTC-04:00)

Altair - Pass Details

Date: 17 February 2026
Orbit: 1502 x 1682 km, 47.2° (Epoch: 10 March)

Event Time Altitude Azimuth Distance (km) Brightness Sun altitude
Exits shadow 04:23:58 77° 215° (SW) 1,541 7.2 -34.3°
Maximum altitude 04:24:46 87° 141° (SE) 1,515 7.3 -34.2°
Drops below altitude 10° 04:34:09 10° 53° (NE) 3,719 10.2 -32.2°
Sets 04:37:15 0° 53° (NE) 4,725 10.9 -31.5°
